COSMOS 795

Satellite information

Favourite Embed

Satellite Type and Status

PAYLOADIN ORBIT

Key statistics

Satellite COSMOS 795 at a glance.

Uptime

18058

Days in orbit

Revolutions

≈ 12.5

Per day

Orbit

LEO

Low Earth Orbit

Inclination

74.1

Latest

Satellite identification and parameters

Extended collection of information and parameters for COSMOS 795.

Object identification

Identified? True

Debris? False

Object name: COSMOS 795

International designator: 1976-008E

Object number (NORAD): 8611

Object ID (CCSDS): 8611

Country: COMMONWEALTH OF INDEPENDENT STATES (CIS)

Current information (Y/N): Y

RCS size: MEDIUM

Orbital parameters

Period: 115.59 minutes

Inclination: 74.0565 deg

SMA: 7860.3 km

Apoapsis: 1497.831 km

Periapsis: 1466.499 km

RAAN: 290.1837 deg

Eccentricy: 0.0019931

Argument of periapsis: 204.504 deg

Mean anomaly: 155.5063 deg

Mean motion: 12.45787846 rev/day

Mean motion (dot): -0.00000024 rev/day2

B* drag term: -0.000058005 1/REarth

Two-line elements (TLE)

Creation date: July 6, 2025, 6:05 p.m.

Reference frame: TEME

Reference center: EARTH

Epoch: July 6, 2025, 9:28 a.m. UTC

TLE line 0: 0 COSMOS 795

TLE line 1: 1 08611U 76008E 25187.39460540 -.00000024 00000-0 -58005-4 0 9991

TLE line 2: 2 08611 74.0565 290.1837 0019931 204.5040 155.5063 12.45787846248161

Live tracking on map

Real-time ground track for satellite COSMOS 795.

In-orbit conjunctions

A list of the most updated potential collisions computed for object COSMOS 795.

Target Orbit TCA Probability of collision Miss distance Type
SSD LEO 2025-05-03 20:46:23 0.0001826953 722.0 (m) PAYLOAD

Associated space launch

Military communications satellites

COSMOS 795 was lifted into orbit during the mission ‘Kosmos-3M | Strela-1M 105-112’, on board a Kosmos-3M space rocket.

The launch took place on Jan. 28, 1976, 10:39 a.m. from 132/1 (132L).

For more information about the launch, click the button.

Launch to space Kosmos-3M | Strela-1M 105-112
Kosmos-3M | Strela-1M 105-112

Agency: N/A

Status: Launch Successful

Launch date: Jan. 28, 1976, 10:39 a.m. UTC

Rocket: Kosmos-3M

Launch pad: 132/1 (132L)

Location: Plesetsk Cosmodrome, Russian Federation

...

Latest news about this satellite

There are no fresh news available about this satellite. Check back as we update our databases every day.


Newsletter sign-up

Weekly statistics, charts and insights to help you stay on top of the space industry.